Погода в Монтевидео

Уругвай     34°51′33″S   56°11′52″W
темп.,
°C
ветер,
м/с
пор.,
м/с
влажн.,
%
обл.,
%
осадки,
мм/ч
давл.,
гПа
погр.,
м
10 мая, пн
пн1000:00+15с2586100 0.0 1020148
03:00+14сз2487100 0.0 1019108
06:00+15ююз389199 0.2 1019325
09:00+15ююз478172 0.2 1021615
12:00+17ююз576398 0.0 1021989
15:00+16ююз6861100 0.1 10211080
18:00+13ююз4955100 0.0 1021520
21:00+13ююз4959100 0.0 1023397
11 мая, вт
вт1100:00+12ююз510554 0.0 1023524
03:00+11юз49620 0.0 1022451
06:00+11юз49700 0.0 1022430
09:00+12юз57682 0.0 1024951
12:00+15юз57552 0.0 10231304
15:00+15юз455712 0.0 10221228
18:00+12з24670 0.0 1021101
21:00+10сз34722 0.0 1022116
12 мая, ср
ср1200:00+9зсз237519 0.0 102288
03:00+9зсз22830 0.0 102154
06:00+8сз35860 0.0 1021108
09:00+9сз36760 0.0 1022182
12:00+15з46592 0.0 1022799
15:00+16з46510 0.0 1020767
18:00+12з36710 0.0 1020159
21:00+10сз37830 0.0 1020141
13 мая, чт
чт1300:00+8сз36810 0.0 1021118
03:00+8сз37825 0.0 1021127
06:00+7сз368332 0.0 1021107
09:00+9сз3674100 0.0 1022162
12:00+16зсз4654100 0.0 1022500
15:00+17з4651100 0.0 1021630
18:00+12з227733 0.0 102152
21:00+10ссз118099 0.0 102218
14 мая, пт
пт1400:00+10ссз1181100 0.0 102115
03:00+9сз228288 0.0 102232
06:00+8ссз1179100 0.0 102114
09:00+11ссз116987 0.0 102351
12:00+17сз22495 0.0 1022500
15:00+18зюз10430 0.0 1020623
18:00+13ююв11650 0.0 102120
21:00+11всв227354 0.0 102245